METAR Formatted Surface Weather Observation
Issued by NWS Albuquerque, NM

Home | Current Version | Previous Version | Text Only | Print | Product List | Glossary On
Versions: 1 2 3 4 5 6 7 8 9 10 11 12 13 14 15 16 17 18 19 20 21 22 23 24 25 26 27 28 29 30 31 32 33 34 35 36 37 38 39 40 41 42 43 44 45 46 47 48 49 50
000
SAUS45 KABQ 031152
MTRABQ
METAR KABQ 031152Z 22005KT 10SM FEW030 OVC055 06/M02 A2994 RMK AO2
SLP103 MTNS OBSC NE-SE 60000 T00561017 10067 20050 55001



USA.gov is the U.S. government's official web portal to all federal, state and local government web resources and services.